Year,Month,Day,Hour,Minute,Value (Times are PST for windgust in km/hr)
2015,12,08,00,00,20.90
2015,12,08,00,01,17.70
2015,12,08,00,02,14.50
2015,12,08,00,03,11.30
2015,12,08,00,04,19.30
2015,12,08,00,05,24.20
2015,12,08,00,06,14.50
2015,12,08,00,07,17.70
2015,12,08,00,08,22.50
2015,12,08,00,09,27.40
2015,12,08,00,10,17.70
2015,12,08,00,11,17.70
2015,12,08,00,12,17.70
2015,12,08,00,13,19.30
2015,12,08,00,14,17.70
2015,12,08,00,15,30.60
2015,12,08,00,16,17.70
2015,12,08,00,17,17.70
2015,12,08,00,18,20.90
2015,12,08,00,19,17.70
2015,12,08,00,20,14.50
2015,12,08,00,21,17.70
2015,12,08,00,22,11.30
2015,12,08,00,23,9.60
2015,12,08,00,24,14.50
2015,12,08,00,25,17.70
2015,12,08,00,26,29.00
2015,12,08,00,27,24.20
2015,12,08,00,28,17.70
2015,12,08,00,29,25.70
2015,12,08,00,30,20.90
2015,12,08,00,31,22.50
2015,12,08,00,32,24.20
2015,12,08,00,33,17.70
2015,12,08,00,34,16.10
2015,12,08,00,35,17.70
2015,12,08,00,36,3.20
2015,12,08,00,37,19.30
2015,12,08,00,38,11.30
2015,12,08,00,39,12.90
2015,12,08,00,40,12.90
2015,12,08,00,41,8.10
2015,12,08,00,42,22.50
2015,12,08,00,43,14.50
2015,12,08,00,44,12.90
2015,12,08,00,45,17.70
2015,12,08,00,46,12.90
2015,12,08,00,47,20.90
2015,12,08,00,48,14.50
2015,12,08,00,49,25.70
2015,12,08,00,50,12.90
2015,12,08,00,51,12.90
2015,12,08,00,52,11.30
2015,12,08,00,53,9.60
2015,12,08,00,54,6.40
2015,12,08,00,55,11.30
2015,12,08,00,56,9.60
2015,12,08,00,57,11.30
2015,12,08,00,58,9.60
2015,12,08,00,59,20.90
2015,12,08,01,00,22.50
2015,12,08,01,01,11.30
2015,12,08,01,02,20.90
2015,12,08,01,03,9.60
2015,12,08,01,04,19.30
2015,12,08,01,05,17.70
2015,12,08,01,06,12.90
2015,12,08,01,07,19.30
2015,12,08,01,08,17.70
2015,12,08,01,09,16.10
2015,12,08,01,10,12.90
2015,12,08,01,11,11.30
2015,12,08,01,12,24.20
2015,12,08,01,13,19.30
2015,12,08,01,14,19.30
2015,12,08,01,15,11.30
2015,12,08,01,16,19.30
2015,12,08,01,17,19.30
2015,12,08,01,18,20.90
2015,12,08,01,19,22.50
2015,12,08,01,20,27.40
2015,12,08,01,21,19.30
2015,12,08,01,22,19.30
2015,12,08,01,23,17.70
2015,12,08,01,24,16.10
2015,12,08,01,25,19.30
2015,12,08,01,26,17.70
2015,12,08,01,27,19.30
2015,12,08,01,28,20.90
2015,12,08,01,29,29.00
2015,12,08,01,30,11.30
2015,12,08,01,31,24.20
2015,12,08,01,32,17.70
2015,12,08,01,33,9.60
2015,12,08,01,34,6.40
2015,12,08,01,35,24.20
2015,12,08,01,36,29.00
2015,12,08,01,37,12.90
2015,12,08,01,38,20.90
2015,12,08,01,39,27.40
2015,12,08,01,40,11.30
2015,12,08,01,41,12.90
2015,12,08,01,42,11.30
2015,12,08,01,43,8.10
2015,12,08,01,44,12.90
2015,12,08,01,45,20.90
2015,12,08,01,46,17.70
2015,12,08,01,47,17.70
2015,12,08,01,48,12.90
2015,12,08,01,49,9.60
2015,12,08,01,50,16.10
2015,12,08,01,51,25.70
2015,12,08,01,52,9.60
2015,12,08,01,53,14.50
2015,12,08,01,54,17.70
2015,12,08,01,55,22.50
2015,12,08,01,56,9.60
2015,12,08,01,57,11.30
2015,12,08,01,58,20.90
2015,12,08,01,59,14.50
2015,12,08,02,00,16.10
2015,12,08,02,01,19.30
2015,12,08,02,02,19.30
2015,12,08,02,03,30.60
2015,12,08,02,04,30.60
2015,12,08,02,05,20.90
2015,12,08,02,06,30.60
2015,12,08,02,07,35.40
2015,12,08,02,08,29.00
2015,12,08,02,09,33.80
2015,12,08,02,10,38.60
2015,12,08,02,11,29.00
2015,12,08,02,12,22.50
2015,12,08,02,13,32.20
2015,12,08,02,14,24.20
2015,12,08,02,15,48.30
2015,12,08,02,16,32.20
2015,12,08,02,17,20.90
2015,12,08,02,18,33.80
2015,12,08,02,19,35.40
2015,12,08,02,20,24.20
2015,12,08,02,21,37.00
2015,12,08,02,22,30.60
2015,12,08,02,23,29.00
2015,12,08,02,24,27.40
2015,12,08,02,25,24.20
2015,12,08,02,26,14.50
2015,12,08,02,27,19.30
2015,12,08,02,28,22.50
2015,12,08,02,29,19.30
2015,12,08,02,30,9.60
2015,12,08,02,31,14.50
2015,12,08,02,32,20.90
2015,12,08,02,33,19.30
2015,12,08,02,34,19.30
2015,12,08,02,35,16.10
2015,12,08,02,36,20.90
2015,12,08,02,37,24.20
2015,12,08,02,38,22.50
2015,12,08,02,39,29.00
2015,12,08,02,40,17.70
2015,12,08,02,41,20.90
2015,12,08,02,42,17.70
2015,12,08,02,43,16.10
2015,12,08,02,44,20.90
2015,12,08,02,45,12.90
2015,12,08,02,46,12.90
2015,12,08,02,47,17.70
2015,12,08,02,48,19.30
2015,12,08,02,49,14.50
2015,12,08,02,50,17.70
2015,12,08,02,51,14.50
2015,12,08,02,52,8.10
2015,12,08,02,53,14.50
2015,12,08,02,54,16.10
2015,12,08,02,55,16.10
2015,12,08,02,56,24.20
2015,12,08,02,57,17.70
2015,12,08,02,58,14.50
2015,12,08,02,59,16.10
2015,12,08,03,00,11.30
2015,12,08,03,01,16.10
2015,12,08,03,02,35.40
2015,12,08,03,03,24.20
2015,12,08,03,04,16.10
2015,12,08,03,05,14.50
2015,12,08,03,06,12.90
2015,12,08,03,07,12.90
2015,12,08,03,08,19.30
2015,12,08,03,09,17.70
2015,12,08,03,10,27.40
2015,12,08,03,11,29.00
2015,12,08,03,12,20.90
2015,12,08,03,13,27.40
2015,12,08,03,14,20.90
2015,12,08,03,15,24.20
2015,12,08,03,16,27.40
2015,12,08,03,17,17.70
2015,12,08,03,18,17.70
2015,12,08,03,19,17.70
2015,12,08,03,20,19.30
2015,12,08,03,21,22.50
2015,12,08,03,22,17.70
2015,12,08,03,23,19.30
2015,12,08,03,24,14.50
2015,12,08,03,25,16.10
2015,12,08,03,26,17.70
2015,12,08,03,27,9.60
2015,12,08,03,28,24.20
2015,12,08,03,29,9.60
2015,12,08,03,30,20.90
2015,12,08,03,31,22.50
2015,12,08,03,32,20.90
2015,12,08,03,33,19.30
2015,12,08,03,34,25.70
2015,12,08,03,35,17.70
2015,12,08,03,36,16.10
2015,12,08,03,37,24.20
2015,12,08,03,38,17.70
2015,12,08,03,39,38.60
2015,12,08,03,40,22.50
2015,12,08,03,41,20.90
2015,12,08,03,42,11.30
2015,12,08,03,43,11.30
2015,12,08,03,44,20.90
2015,12,08,03,45,29.00
2015,12,08,03,46,17.70
2015,12,08,03,47,32.20
2015,12,08,03,48,20.90
2015,12,08,03,49,22.50
2015,12,08,03,50,27.40
2015,12,08,03,51,19.30
2015,12,08,03,52,20.90
2015,12,08,03,53,12.90
2015,12,08,03,54,19.30
2015,12,08,03,55,11.30
2015,12,08,03,56,14.50
2015,12,08,03,57,14.50
2015,12,08,03,58,14.50
2015,12,08,03,59,14.50
2015,12,08,04,00,22.50
2015,12,08,04,01,29.00
2015,12,08,04,02,29.00
2015,12,08,04,03,16.10
2015,12,08,04,04,32.20
2015,12,08,04,05,27.40
2015,12,08,04,06,29.00
2015,12,08,04,07,38.60
2015,12,08,04,08,30.60
2015,12,08,04,09,25.70
2015,12,08,04,10,22.50
2015,12,08,04,11,30.60
2015,12,08,04,12,25.70
2015,12,08,04,13,19.30
2015,12,08,04,14,32.20
2015,12,08,04,15,30.60
2015,12,08,04,16,30.60
2015,12,08,04,17,37.00
2015,12,08,04,18,37.00
2015,12,08,04,19,32.20
2015,12,08,04,20,35.40
2015,12,08,04,21,27.40
2015,12,08,04,22,29.00
2015,12,08,04,23,40.20
2015,12,08,04,24,37.00
2015,12,08,04,25,38.60
2015,12,08,04,26,27.40
2015,12,08,04,27,30.60
2015,12,08,04,28,45.10
2015,12,08,04,29,35.40
2015,12,08,04,30,35.40
2015,12,08,04,31,25.70
2015,12,08,04,32,33.80
2015,12,08,04,33,24.20
2015,12,08,04,34,32.20
2015,12,08,04,35,14.50
2015,12,08,04,36,24.20
2015,12,08,04,37,29.00
2015,12,08,04,38,24.20
2015,12,08,04,39,16.10
2015,12,08,04,40,35.40
2015,12,08,04,41,27.40
2015,12,08,04,42,24.20
2015,12,08,04,43,22.50
2015,12,08,04,44,20.90
2015,12,08,04,45,27.40
2015,12,08,04,46,33.80
2015,12,08,04,47,27.40
2015,12,08,04,48,20.90
2015,12,08,04,49,20.90
2015,12,08,04,50,35.40
2015,12,08,04,51,25.70
2015,12,08,04,52,29.00
2015,12,08,04,53,24.20
2015,12,08,04,54,27.40
2015,12,08,04,55,20.90
2015,12,08,04,56,29.00
2015,12,08,04,57,24.20
2015,12,08,04,58,30.60
2015,12,08,04,59,22.50
2015,12,08,05,00,22.50
2015,12,08,05,01,14.50
2015,12,08,05,02,19.30
2015,12,08,05,03,30.60
2015,12,08,05,04,19.30
2015,12,08,05,05,24.20
2015,12,08,05,06,20.90
2015,12,08,05,07,27.40
2015,12,08,05,08,19.30
2015,12,08,05,09,22.50
2015,12,08,05,10,19.30
2015,12,08,05,11,16.10
2015,12,08,05,12,19.30
2015,12,08,05,13,17.70
2015,12,08,05,14,17.70
2015,12,08,05,15,20.90
2015,12,08,05,16,17.70
2015,12,08,05,17,30.60
2015,12,08,05,18,20.90
2015,12,08,05,19,27.40
2015,12,08,05,20,19.30
2015,12,08,05,21,22.50
2015,12,08,05,22,17.70
2015,12,08,05,23,22.50
2015,12,08,05,24,27.40
2015,12,08,05,25,27.40
2015,12,08,05,26,12.90
2015,12,08,05,27,19.30
2015,12,08,05,28,17.70
2015,12,08,05,29,27.40
2015,12,08,05,30,24.20
2015,12,08,05,31,20.90
2015,12,08,05,32,17.70
2015,12,08,05,33,19.30
2015,12,08,05,34,22.50
2015,12,08,05,35,29.00
2015,12,08,05,36,22.50
2015,12,08,05,37,29.00
2015,12,08,05,38,29.00
2015,12,08,05,39,27.40
2015,12,08,05,40,22.50
2015,12,08,05,41,20.90
2015,12,08,05,42,27.40
2015,12,08,05,43,27.40
2015,12,08,05,44,29.00
2015,12,08,05,45,24.20
2015,12,08,05,46,29.00
2015,12,08,05,47,30.60
2015,12,08,05,48,32.20
2015,12,08,05,49,35.40
2015,12,08,05,50,24.20
2015,12,08,05,51,20.90
2015,12,08,05,52,22.50
2015,12,08,05,53,25.70
2015,12,08,05,54,19.30
2015,12,08,05,55,27.40
2015,12,08,05,56,27.40
2015,12,08,05,57,35.40
2015,12,08,05,58,33.80
2015,12,08,05,59,20.90
2015,12,08,06,00,17.70
2015,12,08,06,01,29.00
2015,12,08,06,02,24.20
2015,12,08,06,03,25.70
2015,12,08,06,04,24.20
2015,12,08,06,05,19.30
2015,12,08,06,06,24.20
2015,12,08,06,07,19.30
2015,12,08,06,08,20.90
2015,12,08,06,09,30.60
2015,12,08,06,10,29.00
2015,12,08,06,11,33.80
2015,12,08,06,12,22.50
2015,12,08,06,13,19.30
2015,12,08,06,14,19.30
2015,12,08,06,15,22.50
2015,12,08,06,16,30.60
2015,12,08,06,17,22.50
2015,12,08,06,18,38.60
2015,12,08,06,19,22.50
2015,12,08,06,20,17.70
2015,12,08,06,21,27.40
2015,12,08,06,22,22.50
2015,12,08,06,23,38.60
2015,12,08,06,24,29.00
2015,12,08,06,25,16.10
2015,12,08,06,26,32.20
2015,12,08,06,27,30.60
2015,12,08,06,28,38.60
2015,12,08,06,29,29.00
2015,12,08,06,30,29.00
2015,12,08,06,31,32.20
2015,12,08,06,32,25.70
2015,12,08,06,33,33.80
2015,12,08,06,34,25.70
2015,12,08,06,35,30.60
2015,12,08,06,36,20.90
2015,12,08,06,37,29.00
2015,12,08,06,38,30.60
2015,12,08,06,39,24.20
2015,12,08,06,40,29.00
2015,12,08,06,41,30.60
2015,12,08,06,42,22.50
2015,12,08,06,43,30.60
2015,12,08,06,44,27.40
2015,12,08,06,45,24.20
2015,12,08,06,46,30.60
2015,12,08,06,47,20.90
2015,12,08,06,48,27.40
2015,12,08,06,49,24.20
2015,12,08,06,50,27.40
2015,12,08,06,51,38.60
2015,12,08,06,52,25.70
2015,12,08,06,53,33.80
2015,12,08,06,54,37.00
2015,12,08,06,55,38.60
2015,12,08,06,56,32.20
2015,12,08,06,57,32.20
2015,12,08,06,58,40.20
2015,12,08,06,59,40.20
2015,12,08,07,00,45.10
2015,12,08,07,01,37.00
2015,12,08,07,02,33.80
2015,12,08,07,03,25.70
2015,12,08,07,04,20.90
2015,12,08,07,05,22.50
2015,12,08,07,06,20.90
2015,12,08,07,07,22.50
2015,12,08,07,08,27.40
2015,12,08,07,09,27.40
2015,12,08,07,10,22.50
2015,12,08,07,11,25.70
2015,12,08,07,12,19.30
2015,12,08,07,13,27.40
2015,12,08,07,14,30.60
2015,12,08,07,15,24.20
2015,12,08,07,16,29.00
2015,12,08,07,17,25.70
2015,12,08,07,18,25.70
2015,12,08,07,19,32.20
2015,12,08,07,20,17.70
2015,12,08,07,21,22.50
2015,12,08,07,22,24.20
2015,12,08,07,23,32.20
2015,12,08,07,24,24.20
2015,12,08,07,25,22.50
2015,12,08,07,26,17.70
2015,12,08,07,27,24.20
2015,12,08,07,28,14.50
2015,12,08,07,29,16.10
2015,12,08,07,30,11.30
2015,12,08,07,31,14.50
2015,12,08,07,32,12.90
2015,12,08,07,33,12.90
2015,12,08,07,34,17.70
2015,12,08,07,35,16.10
2015,12,08,07,36,17.70
2015,12,08,07,37,20.90
2015,12,08,07,38,20.90
2015,12,08,07,39,22.50
2015,12,08,07,40,24.20
2015,12,08,07,41,22.50
2015,12,08,07,42,17.70
2015,12,08,07,43,16.10
2015,12,08,07,44,29.00
2015,12,08,07,45,22.50
2015,12,08,07,46,24.20
2015,12,08,07,47,17.70
2015,12,08,07,48,32.20
2015,12,08,07,49,24.20
2015,12,08,07,50,30.60
2015,12,08,07,51,24.20
2015,12,08,07,52,17.70
2015,12,08,07,53,20.90
2015,12,08,07,54,38.60
2015,12,08,07,55,19.30
2015,12,08,07,56,32.20
2015,12,08,07,57,27.40
2015,12,08,07,58,27.40
2015,12,08,07,59,38.60
2015,12,08,08,00,30.60
2015,12,08,08,01,38.60
2015,12,08,08,02,27.40
2015,12,08,08,03,29.00
2015,12,08,08,04,22.50
2015,12,08,08,05,19.30
2015,12,08,08,06,19.30
2015,12,08,08,07,16.10
2015,12,08,08,08,12.90
2015,12,08,08,09,20.90
2015,12,08,08,10,12.90
2015,12,08,08,11,16.10
2015,12,08,08,12,9.60
2015,12,08,08,13,17.70
2015,12,08,08,14,9.60
2015,12,08,08,15,24.20
2015,12,08,08,16,11.30
2015,12,08,08,17,11.30
2015,12,08,08,18,8.10
2015,12,08,08,19,12.90
2015,12,08,08,20,12.90
2015,12,08,08,21,16.10
2015,12,08,08,22,12.90
2015,12,08,08,23,11.30
2015,12,08,08,24,6.40
2015,12,08,08,25,14.50
2015,12,08,08,26,14.50
2015,12,08,08,27,4.80
2015,12,08,08,28,8.10
2015,12,08,08,29,9.60
2015,12,08,08,30,12.90
2015,12,08,08,31,4.80
2015,12,08,08,32,16.10
2015,12,08,08,33,8.10
2015,12,08,08,34,6.40
2015,12,08,08,35,11.30
2015,12,08,08,36,8.10
2015,12,08,08,37,8.10
2015,12,08,08,38,3.20
2015,12,08,08,39,6.40
2015,12,08,08,40,9.60
2015,12,08,08,41,14.50
2015,12,08,08,42,8.10
2015,12,08,08,43,11.30
2015,12,08,08,44,11.30
2015,12,08,08,45,14.50
2015,12,08,08,46,12.90
2015,12,08,08,47,12.90
2015,12,08,08,48,12.90
2015,12,08,08,49,17.70
2015,12,08,08,50,16.10
2015,12,08,08,51,12.90
2015,12,08,08,52,8.10
2015,12,08,08,53,11.30
2015,12,08,08,54,14.50
2015,12,08,08,55,9.60
2015,12,08,08,56,11.30
2015,12,08,08,57,17.70
2015,12,08,08,58,11.30
2015,12,08,08,59,17.70
2015,12,08,09,00,17.70
2015,12,08,09,01,12.90
2015,12,08,09,02,14.50
2015,12,08,09,03,20.90
2015,12,08,09,04,17.70
2015,12,08,09,05,9.60
2015,12,08,09,06,14.50
2015,12,08,09,07,12.90
2015,12,08,09,08,20.90
2015,12,08,09,09,19.30
2015,12,08,09,10,14.50
2015,12,08,09,11,16.10
2015,12,08,09,12,16.10
2015,12,08,09,13,12.90
2015,12,08,09,14,16.10
2015,12,08,09,15,8.10
2015,12,08,09,16,9.60
2015,12,08,09,17,17.70
2015,12,08,09,18,11.30
2015,12,08,09,19,12.90
2015,12,08,09,20,17.70
2015,12,08,09,21,16.10
2015,12,08,09,22,11.30
2015,12,08,09,23,14.50
2015,12,08,09,24,16.10
2015,12,08,09,25,17.70
2015,12,08,09,26,12.90
2015,12,08,09,27,9.60
2015,12,08,09,28,14.50
2015,12,08,09,29,8.10
2015,12,08,09,30,11.30
2015,12,08,09,31,11.30
2015,12,08,09,32,11.30
2015,12,08,09,33,9.60
2015,12,08,09,34,16.10
2015,12,08,09,35,12.90
2015,12,08,09,36,4.80
2015,12,08,09,37,8.10
2015,12,08,09,38,12.90
2015,12,08,09,39,9.60
2015,12,08,09,40,9.60
2015,12,08,09,41,9.60
2015,12,08,09,42,14.50
2015,12,08,09,43,9.60
2015,12,08,09,44,6.40
2015,12,08,09,45,9.60
2015,12,08,09,46,11.30
2015,12,08,09,47,12.90
2015,12,08,09,48,9.60
2015,12,08,09,49,12.90
2015,12,08,09,50,12.90
2015,12,08,09,51,16.10
2015,12,08,09,52,20.90
2015,12,08,09,53,14.50
2015,12,08,09,54,16.10
2015,12,08,09,55,17.70
2015,12,08,09,56,19.30
2015,12,08,09,57,12.90
2015,12,08,09,58,9.60
2015,12,08,09,59,16.10
2015,12,08,10,00,9.60
2015,12,08,10,01,11.30
2015,12,08,10,02,12.90
2015,12,08,10,03,17.70
2015,12,08,10,04,8.10
2015,12,08,10,05,17.70
2015,12,08,10,06,14.50
2015,12,08,10,07,17.70
2015,12,08,10,08,12.90
2015,12,08,10,09,12.90
2015,12,08,10,10,14.50
2015,12,08,10,11,9.60
2015,12,08,10,12,14.50
2015,12,08,10,13,12.90
2015,12,08,10,14,11.30
2015,12,08,10,15,19.30
2015,12,08,10,16,14.50
2015,12,08,10,17,12.90
2015,12,08,10,18,11.30
2015,12,08,10,19,11.30
2015,12,08,10,20,14.50
2015,12,08,10,21,9.60
2015,12,08,10,22,8.10
2015,12,08,10,23,9.60
2015,12,08,10,24,8.10
2015,12,08,10,25,8.10
2015,12,08,10,26,11.30
2015,12,08,10,27,9.60
2015,12,08,10,28,8.10
2015,12,08,10,29,9.60
2015,12,08,10,30,9.60
2015,12,08,10,31,8.10
2015,12,08,10,32,9.60
2015,12,08,10,33,4.80
2015,12,08,10,34,8.10
2015,12,08,10,35,12.90
2015,12,08,10,36,12.90
2015,12,08,10,37,11.30
2015,12,08,10,38,9.60
2015,12,08,10,39,16.10
2015,12,08,10,40,12.90
2015,12,08,10,41,14.50
2015,12,08,10,42,11.30
2015,12,08,10,43,16.10
2015,12,08,10,44,9.60
2015,12,08,10,45,6.40
2015,12,08,10,46,14.50
2015,12,08,10,47,11.30
2015,12,08,10,48,11.30
2015,12,08,10,49,11.30
2015,12,08,10,50,8.10
2015,12,08,10,51,9.60
2015,12,08,10,52,1.60
2015,12,08,10,53,9.60
2015,12,08,10,54,6.40
2015,12,08,10,55,12.90
2015,12,08,10,56,9.60
2015,12,08,10,57,11.30
2015,12,08,10,58,9.60
2015,12,08,10,59,11.30
2015,12,08,11,00,8.10
2015,12,08,11,01,9.60
2015,12,08,11,02,12.90
2015,12,08,11,03,12.90
2015,12,08,11,04,14.50
2015,12,08,11,05,11.30
2015,12,08,11,06,12.90
2015,12,08,11,07,16.10
2015,12,08,11,08,11.30
2015,12,08,11,09,11.30
2015,12,08,11,10,9.60
2015,12,08,11,11,12.90
2015,12,08,11,12,8.10
2015,12,08,11,13,14.50
2015,12,08,11,14,11.30
2015,12,08,11,15,14.50
2015,12,08,11,16,11.30
2015,12,08,11,17,14.50
2015,12,08,11,18,16.10
2015,12,08,11,19,9.60
2015,12,08,11,20,9.60
2015,12,08,11,21,16.10
2015,12,08,11,22,12.90
2015,12,08,11,23,16.10
2015,12,08,11,24,14.50
2015,12,08,11,25,11.30
2015,12,08,11,26,9.60
2015,12,08,11,27,6.40
2015,12,08,11,28,3.20
2015,12,08,11,29,11.30
2015,12,08,11,30,6.40
2015,12,08,11,31,8.10
2015,12,08,11,32,11.30
2015,12,08,11,33,8.10
2015,12,08,11,34,9.60
2015,12,08,11,35,8.10
2015,12,08,11,36,4.80
2015,12,08,11,37,6.40
2015,12,08,11,38,4.80
2015,12,08,11,39,1.60
2015,12,08,11,40,1.60
2015,12,08,11,42,1.60
2015,12,08,11,43,4.80
2015,12,08,11,44,6.40
2015,12,08,11,45,11.30
2015,12,08,11,46,8.10
2015,12,08,11,47,3.20
2015,12,08,11,48,11.30
2015,12,08,11,49,8.10
2015,12,08,11,50,9.60
2015,12,08,11,51,9.60
2015,12,08,11,52,6.40
2015,12,08,11,53,8.10
2015,12,08,11,54,6.40
2015,12,08,11,55,8.10
2015,12,08,11,56,1.60
2015,12,08,11,57,4.80
2015,12,08,11,58,6.40
2015,12,08,11,59,8.10
2015,12,08,12,00,8.10
2015,12,08,12,01,6.40
2015,12,08,12,02,6.40
2015,12,08,12,03,4.80
2015,12,08,12,04,4.80
2015,12,08,12,05,8.10
2015,12,08,12,06,6.40
2015,12,08,12,07,4.80
2015,12,08,12,08,4.80
2015,12,08,12,09,9.60
2015,12,08,12,10,8.10
2015,12,08,12,11,3.20
2015,12,08,12,12,3.20
2015,12,08,12,13,6.40
2015,12,08,12,14,8.10
2015,12,08,12,15,4.80
2015,12,08,12,16,4.80
2015,12,08,12,17,4.80
2015,12,08,12,18,6.40
2015,12,08,12,19,3.20
2015,12,08,12,20,3.20
2015,12,08,12,21,3.20
2015,12,08,12,22,4.80
2015,12,08,12,23,4.80
2015,12,08,12,24,3.20
2015,12,08,12,25,6.40
2015,12,08,12,26,6.40
2015,12,08,12,27,3.20
2015,12,08,12,28,3.20
2015,12,08,12,30,1.60
2015,12,08,12,32,1.60
2015,12,08,12,33,3.20
2015,12,08,12,34,6.40
2015,12,08,12,35,4.80
2015,12,08,12,36,6.40
2015,12,08,12,37,8.10
2015,12,08,12,38,6.40
2015,12,08,12,39,6.40
2015,12,08,12,40,3.20
2015,12,08,12,41,3.20
2015,12,08,12,42,9.60
2015,12,08,12,43,6.40
2015,12,08,12,44,4.80
2015,12,08,12,45,4.80
2015,12,08,12,46,6.40
2015,12,08,12,47,4.80
2015,12,08,12,48,6.40
2015,12,08,12,49,8.10
2015,12,08,12,50,4.80
2015,12,08,12,51,6.40
2015,12,08,12,52,6.40
2015,12,08,12,53,6.40
2015,12,08,12,54,4.80
2015,12,08,12,55,4.80
2015,12,08,12,56,4.80
2015,12,08,12,57,11.30
2015,12,08,12,58,6.40
2015,12,08,12,59,12.90
2015,12,08,13,00,14.50
2015,12,08,13,01,6.40
2015,12,08,13,02,6.40
2015,12,08,13,03,8.10
2015,12,08,13,04,9.60
2015,12,08,13,05,12.90
2015,12,08,13,06,9.60
2015,12,08,13,07,8.10
2015,12,08,13,08,9.60
2015,12,08,13,09,8.10
2015,12,08,13,10,12.90
2015,12,08,13,11,14.50
2015,12,08,13,12,11.30
2015,12,08,13,13,8.10
2015,12,08,13,14,9.60
2015,12,08,13,15,11.30
2015,12,08,13,16,12.90
2015,12,08,13,17,12.90
2015,12,08,13,18,9.60
2015,12,08,13,19,8.10
2015,12,08,13,20,11.30
2015,12,08,13,21,12.90
2015,12,08,13,22,9.60
2015,12,08,13,23,11.30
2015,12,08,13,24,6.40
2015,12,08,13,25,8.10
2015,12,08,13,26,8.10
2015,12,08,13,27,16.10
2015,12,08,13,28,12.90
2015,12,08,13,29,12.90
2015,12,08,13,30,9.60
2015,12,08,13,31,11.30
2015,12,08,13,32,8.10
2015,12,08,13,33,6.40
2015,12,08,13,34,11.30
2015,12,08,13,35,12.90
2015,12,08,13,36,9.60
2015,12,08,13,37,6.40
2015,12,08,13,38,6.40
2015,12,08,13,39,11.30
2015,12,08,13,40,16.10
2015,12,08,13,41,12.90
2015,12,08,13,42,11.30
2015,12,08,13,43,8.10
2015,12,08,13,44,11.30
2015,12,08,13,45,8.10
2015,12,08,13,46,11.30
2015,12,08,13,47,9.60
2015,12,08,13,48,11.30
2015,12,08,13,49,8.10
2015,12,08,13,50,9.60
2015,12,08,13,51,8.10
2015,12,08,13,52,6.40
2015,12,08,13,53,8.10
2015,12,08,13,54,12.90
2015,12,08,13,55,8.10
2015,12,08,13,56,12.90
2015,12,08,13,57,6.40
2015,12,08,13,58,6.40
2015,12,08,13,59,6.40
2015,12,08,14,00,6.40
2015,12,08,14,01,8.10
2015,12,08,14,02,6.40
2015,12,08,14,03,4.80
2015,12,08,14,04,6.40
2015,12,08,14,05,9.60
2015,12,08,14,06,6.40
2015,12,08,14,07,8.10
2015,12,08,14,08,11.30
2015,12,08,14,09,1.60
2015,12,08,14,10,1.60
2015,12,08,14,11,8.10
2015,12,08,14,12,9.60
2015,12,08,14,13,9.60
2015,12,08,14,14,6.40
2015,12,08,14,15,3.20
2015,12,08,14,16,8.10
2015,12,08,14,17,8.10
2015,12,08,14,18,8.10
2015,12,08,14,19,6.40
2015,12,08,14,20,3.20
2015,12,08,14,21,1.60
2015,12,08,14,22,6.40
2015,12,08,14,23,9.60
2015,12,08,14,24,3.20
2015,12,08,14,25,1.60
2015,12,08,14,26,3.20
2015,12,08,14,27,3.20
2015,12,08,14,28,6.40
2015,12,08,14,29,3.20
2015,12,08,14,30,3.20
2015,12,08,14,31,6.40
2015,12,08,14,32,3.20
2015,12,08,14,33,1.60
2015,12,08,14,34,1.60
2015,12,08,14,49,1.60
2015,12,08,14,51,1.60
2015,12,08,14,53,1.60
2015,12,08,14,55,1.60
2015,12,08,15,01,1.60
2015,12,08,15,02,1.60
2015,12,08,15,06,1.60
2015,12,08,15,07,1.60
2015,12,08,15,08,3.20
2015,12,08,15,09,3.20
2015,12,08,15,10,6.40
2015,12,08,15,11,6.40
2015,12,08,15,12,8.10
2015,12,08,15,13,6.40
2015,12,08,15,14,9.60
2015,12,08,15,15,8.10
2015,12,08,15,16,11.30
2015,12,08,15,17,6.40
2015,12,08,15,18,9.60
2015,12,08,15,19,6.40
2015,12,08,15,20,8.10
2015,12,08,15,21,9.60
2015,12,08,15,22,9.60
2015,12,08,15,23,8.10
2015,12,08,15,24,6.40
2015,12,08,15,25,6.40
2015,12,08,15,26,8.10
2015,12,08,15,27,6.40
2015,12,08,15,28,6.40
2015,12,08,15,29,3.20
2015,12,08,15,30,8.10
2015,12,08,15,31,9.60
2015,12,08,15,32,8.10
2015,12,08,15,33,3.20
2015,12,08,15,34,8.10
2015,12,08,15,35,9.60
2015,12,08,15,36,3.20
2015,12,08,15,37,3.20
2015,12,08,15,38,3.20
2015,12,08,15,45,3.20
2015,12,08,15,46,6.40
2015,12,08,15,47,9.60
2015,12,08,15,48,9.60
2015,12,08,15,49,6.40
2015,12,08,15,50,8.10
2015,12,08,15,51,9.60
2015,12,08,15,52,6.40
2015,12,08,15,53,6.40
2015,12,08,15,54,3.20
2015,12,08,15,55,3.20
2015,12,08,15,56,6.40
2015,12,08,15,58,1.60
2015,12,08,15,59,6.40
2015,12,08,16,00,8.10
2015,12,08,16,01,6.40
2015,12,08,16,02,9.60
2015,12,08,16,03,8.10
2015,12,08,16,04,1.60
2015,12,08,16,05,9.60
2015,12,08,16,06,6.40
2015,12,08,16,07,8.10
2015,12,08,16,08,3.20
2015,12,08,16,09,6.40
2015,12,08,16,10,12.90
2015,12,08,16,11,9.60
2015,12,08,16,12,8.10
2015,12,08,16,13,12.90
2015,12,08,16,14,14.50
2015,12,08,16,15,6.40
2015,12,08,16,16,11.30
2015,12,08,16,17,11.30
2015,12,08,16,18,9.60
2015,12,08,16,19,9.60
2015,12,08,16,20,8.10
2015,12,08,16,21,8.10
2015,12,08,16,22,6.40
2015,12,08,16,23,3.20
2015,12,08,16,24,8.10
2015,12,08,16,25,8.10
2015,12,08,16,26,3.20
2015,12,08,16,27,8.10
2015,12,08,16,28,8.10
2015,12,08,16,29,3.20
2015,12,08,16,30,3.20
2015,12,08,16,31,9.60
2015,12,08,16,32,8.10
2015,12,08,16,33,9.60
2015,12,08,16,34,9.60
2015,12,08,16,35,8.10
2015,12,08,16,36,6.40
2015,12,08,16,37,6.40
2015,12,08,16,38,9.60
2015,12,08,16,39,6.40
2015,12,08,16,41,1.60
2015,12,08,16,42,3.20
2015,12,08,16,43,8.10
2015,12,08,16,44,3.20
2015,12,08,16,45,1.60
2015,12,08,16,46,6.40
2015,12,08,16,47,3.20
2015,12,08,16,48,3.20
2015,12,08,16,49,3.20
2015,12,08,16,50,6.40
2015,12,08,16,51,6.40
2015,12,08,16,52,8.10
2015,12,08,16,53,9.60
2015,12,08,16,54,6.40
2015,12,08,16,55,8.10
2015,12,08,16,56,9.60
2015,12,08,16,57,11.30
2015,12,08,16,58,9.60
2015,12,08,16,59,8.10
2015,12,08,17,00,9.60
2015,12,08,17,01,8.10
2015,12,08,17,02,8.10
2015,12,08,17,03,9.60
2015,12,08,17,04,8.10
2015,12,08,17,05,6.40
2015,12,08,17,06,6.40
2015,12,08,17,07,3.20
2015,12,08,17,08,3.20
2015,12,08,17,09,1.60
2015,12,08,17,10,3.20
2015,12,08,17,11,3.20
2015,12,08,17,12,6.40
2015,12,08,17,13,1.60
2015,12,08,17,14,3.20
2015,12,08,17,15,3.20
2015,12,08,17,16,3.20
2015,12,08,17,17,3.20
2015,12,08,17,18,1.60
2015,12,08,17,19,1.60
2015,12,08,17,20,1.60
2015,12,08,17,24,1.60
2015,12,08,17,27,1.60
2015,12,08,17,30,1.60
2015,12,08,17,32,1.60
2015,12,08,17,35,1.60
2015,12,08,17,37,1.60
2015,12,08,17,39,1.60
2015,12,08,17,40,1.60
2015,12,08,17,41,1.60
2015,12,08,17,42,3.20
2015,12,08,17,43,6.40
2015,12,08,17,44,3.20
2015,12,08,17,45,3.20
2015,12,08,17,46,3.20
2015,12,08,17,47,1.60
2015,12,08,17,48,8.10
2015,12,08,17,49,3.20
2015,12,08,17,50,3.20
2015,12,08,17,51,6.40
2015,12,08,17,52,3.20
2015,12,08,17,54,1.60
2015,12,08,17,55,3.20
2015,12,08,17,56,3.20
2015,12,08,17,57,6.40
2015,12,08,17,58,8.10
2015,12,08,18,01,1.60
2015,12,08,18,02,1.60
2015,12,08,18,04,1.60
2015,12,08,18,05,3.20
2015,12,08,18,06,1.60
2015,12,08,18,17,3.20
2015,12,08,18,18,3.20
2015,12,08,18,19,6.40
2015,12,08,18,20,6.40
2015,12,08,18,21,3.20
2015,12,08,18,24,1.60
2015,12,08,18,25,1.60
2015,12,08,18,34,1.60
2015,12,08,18,40,1.60
2015,12,08,18,45,3.20
2015,12,08,18,46,1.60
2015,12,08,18,49,1.60
2015,12,08,18,54,1.60
2015,12,08,18,55,1.60
2015,12,08,18,57,1.60
2015,12,08,18,58,1.60
2015,12,08,19,01,8.10
2015,12,08,19,02,3.20
2015,12,08,19,03,1.60
2015,12,08,19,06,1.60
2015,12,08,19,07,12.90
2015,12,08,19,08,11.30
2015,12,08,19,09,9.60